Regional Weather Roundup
Issued by NWS

Home | Current Version | Previous Version | Text Only | Print | Product List | Glossary On
Versions: 1 2 3 4 5 6 7 8 9 10 11 12 13 14 15 16 17 18 19 20 21 22 23 24 25 26 27 28 29 30 31 32 33 34 35 36 37 38 39 40 41 42 43 44 45 46 47 48 49 50
302
ASUS45 KCYS 171610
RWRWY

WYOMING REGIONAL WEATHER ROUNDUP
NATIONAL WEATHER SERVICE CHEYENNE WY
900 AM MST TUE JAN 17 2017

NOTE:  "FAIR" INDICATES FEW OR NO CLOUDS BELOW 12,000 FEET
WITH NO SIGNIFICANT WEATHER AND/OR OBSTRUCTIONS TO VISIBILITY.

WYZ001-171700-
YELLOWSTONE NATIONAL PARK

CITY           SKY/WX    TMP DP  RH WIND       PRES   REMARKS
LK YELLOWSTONE   N/A     -9 -11  91 CALM      30.19R
W YELLOWSTONE  NOT AVBL

$$
WYZ002>013-054>058-071-098>099-171700-
NORTHERN WYOMING

CITY           SKY/WX    TMP DP  RH WIND       PRES   REMARKS
JACKSON        CLEAR     -8  -9  92 N6        30.25R WCI -21
CODY           FAIR      11   2  67 NE3       30.00R
GREYBULL       FAIR      -9 -14  78 CALM      30.09R
WORLAND        FAIR      -5  -8  87 CALM      30.05R
SHERIDAN       FAIR      16   3  56 S3        29.90F
BUFFALO        FAIR      31   6  35 SW8       29.93R WCI  23
GILLETTE       FAIR      30  11  45 SW21      29.93S WCI  17
HULETT         FAIR      23  10  58 W6        29.93S WCI  16
NEWCASTLE      FAIR      14   5  67 CALM      29.99F

$$
WYZ014>020-022>026-101>103-171700-
CENTRAL WYOMING

CITY           SKY/WX    TMP DP  RH WIND       PRES   REMARKS
BIG PINEY      FAIR     -14 -21  71 CALM      30.17R
PINEDALE         N/A    -15 -20  76 W3        30.16R HAZE
DUBOIS         NOT AVBL
LANDER         FAIR       6   3  87 CALM      30.09R
RIVERTON       FAIR       1   0  95 CALM      30.10R FOG
CASPER         FAIR      25   6  44 SW26G43   30.03R WCI   9
DOUGLAS        FAIR      14  10  84 CALM      30.01R

$$
WYZ021-027>030-104>119-171700-
SOUTHERN WYOMING

CITY           SKY/WX    TMP DP  RH WIND       PRES   REMARKS
EVANSTON       FAIR       8   2  76 S5        30.16R WCI   0
ROCK SPRINGS   FAIR      -7 -13  75 E5        30.17R HAZE    WCI -18
RAWLINS        FAIR       1  -3  83 CALM      30.16R
LARAMIE        FAIR      -1  -4  87 CALM      30.07R
CHEYENNE         N/A    N/A N/A N/A MISG      30.03R
TORRINGTON     FAIR      19  14  81 CALM      30.02S

$$




USA.gov is the U.S. government's official web portal to all federal, state and local government web resources and services.